Temp
-18 -19 -18 -18 -18 -17 -17 -17 -16 -16 -15 -15 -15 -15 -15 -15 -15 -14 -14 -15 -15 -15 -16 -15 -14 -14 -14 -14 -14 -14 -15 -15 -15 -15 -15 -15 -15 -15 -15 -15 -15 -15 -15 -15
-19 -19 -18 -19 -18 -18 -18 -17 -16 -16 -15 -15 -15 -15 -15 -15 -14 -14 -14 -15 -15 -16 -16 -16 -16 -15 -14 -14 -14 -14 -14 -14 -15 -15 -15 -15 -15 -15 -15 -15 -15 -15 -15 -16
-19 -19 -19 -19 -19 -18 -18 -17 -17 -16 -16 -16 -16 -16 -16 -15 -16 -15 -15 -15 -15 -16 -16 -17 -16 -16 -15 -14 -14 -14 -14 -14 -15 -15 -15 -15 -16 -15 -16 -16 -16 -16 -16 -16
-20 -20 -19 -19 -19 -18 -18 -17 -17 -18 -18 -18 -17 -18 -17 -17 -16 -16 -16 -16 -16 -16 -15 -16 -15 -16 -16 -15 -15 -14 -14 -14 -14 -15 -15 -15 -15 -15 -16 -16 -16 -16 -16 -16
-20 -20 -20 -20 -20 -19 -19 -19 -20 -19 -18 -18 -18 -17 -18 -18 -17 -17 -17 -17 -17 -17 -16 -16 -15 -15 -15 -16 -15 -15 -15 -15 -14 -14 -14 -15 -14 -15 -15 -15 -15 -15 -16 -16
-20 -20 -20 -20 -19 -19 -19 -19 -19 -18 -19 -18 -17 -18 -18 -17 -17 -17 -17 -18 -18 -17 -16 -16 -16 -15 -15 -15 -15 -15 -15 -15 -15 -14 -14 -14 -14 -14 -14 -15 -15 -15 -15 -15
-22 -20 -20 -20 -20 -20 -20 -19 -19 -18 -18 -18 -18 -19 -19 -19 -18 -18 -18 -18 -17 -16 -16 -16 -16 -16 -16 -16 -15 -15 -15 -15 -15 -14 -14 -14 -14 -14 -14 -15 -14 -15 -16 -16
-23 -21 -20 -21 -21 -21 -20 -20 -20 -20 -20 -20 -19 -19 -19 -19 -19 -19 -19 -19 -19 -18 -18 -18 -18 -17 -17 -16 -16 -16 -16 -16 -15 -15 -15 -15 -14 -14 -14 -15 -15 -15 -16 -16
-23 -23 -21 -21 -21 -21 -21 -21 -21 -21 -21 -21 -21 -20 -19 -20 -20 -19 -19 -20 -20 -20 -20 -19 -19 -19 -18 -18 -17 -17 -16 -16 -16 -16 -16 -16 -15 -15 -15 -15 -15 -16 -17 -17
-23 -23 -22 -22 -22 -21 -21 -21 -21 -21 -21 -21 -20 -20 -21 -20 -20 -20 -20 -20 -20 -20 -20 -20 -19 -19 -19 -19 -18 -18 -17 -17 -17 -16 -16 -16 -16 -16 -16 -16 -16 -17 -17 -17
-23 -23 -22 -22 -22 -21 -21 -21 -21 -21 -21 -21 -21 -21 -21 -21 -21 -21 -21 -20 -20 -20 -20 -20 -19 -19 -19 -19 -19 -19 -19 -18 -18 -18 -18 -17 -17 -17 -17 -17 -17 -18 -18 -18
-22 -22 -22 -22 -23 -22 -21 -21 -22 -22 -22 -22 -22 -22 -21 -21 -21 -21 -20 -20 -20 -20 -20 -20 -20 -19 -19 -19 -19 -19 -19 -19 -18 -18 -18 -18 -18 -18 -18 -18 -18 -18 -18 -18
-22 -22 -22 -22 -23 -22 -22 -22 -22 -22 -22 -22 -21 -21 -21 -21 -21 -21 -20 -20 -20 -20 -20 -20 -20 -19 -19 -19 -19 -19 -19 -19 -19 -19 -19 -18 -18 -18 -18 -19 -19 -19 -19 -19
-24 -23 -23 -23 -23 -23 -22 -22 -22 -22 -22 -21 -21 -21 -21 -21 -21 -21 -21 -21 -20 -20 -20 -20 -20 -20 -20 -20 -20 -20 -20 -20 -20 -20 -20 -19 -19 -19 -19 -19 -19 -19 -19 -18
-23 -23 -23 -23 -23 -22 -22 -22 -22 -22 -22 -22 -22 -22 -21 -21 -21 -21 -21 -20 -20 -20 -21 -21 -21 -22 -22 -22 -22 -22 -23 -23 -22 -21 -21 -20 -20 -20 -20 -20 -20 -19 -18 -19
-23 -23 -23 -22 -22 -22 -22 -22 -22 -22 -22 -22 -22 -22 -22 -21 -21 -21 -21 -22 -22 -23 -23 -23 -23 -22 -22 -22 -23 -23 -23 -23 -23 -23 -22 -22 -22 -21 -21 -21 -21 -20 -20 -20
-24 -24 -23 -23 -23 -23 -22 -22 -22 -22 -22 -22 -22 -22 -22 -22 -23 -23 -23 -23 -23 -23 -23 -23 -23 -23 -23 -23 -23 -23 -23 -23 -23 -23 -23 -23 -22 -22 -22 -22 -22 -21 -21 -21
-24 -24 -24 -23 -23 -23 -23 -23 -23 -23 -23 -23 -23 -23 -23 -23 -23 -23 -23 -23 -23 -23 -23 -23 -23 -23 -23 -23 -23 -23 -23 -23 -23 -23 -23 -23 -23 -22 -22 -22 -22 -22 -22 -22
-24 -24 -24 -24 -24 -24 -24 -24 -24 -24 -24 -24 -24 -23 -23 -23 -23 -23 -23 -23 -23 -23 -23 -23 -23 -23 -23 -23 -23 -24 -24 -24 -23 -23 -23 -23 -23 -23 -23 -23 -23 -23 -22 -22
-25 -25 -25 -25 -24 -24 -24 -24 -24 -24 -24 -24 -24 -23 -23 -23 -23 -23 -23 -23 -23 -23 -23 -23 -23 -23 -24 -24 -24 -24 -24 -24 -24 -24 -24 -24 -24 -24 -24 -24 -24 -24 -24 -24
-26 -25 -25 -25 -25 -25 -25 -24 -24 -24 -24 -24 -24 -23 -23 -23 -23 -23 -24 -24 -24 -24 -24 -25 -25 -25 -25 -25 -25 -25 -25 -25 -25 -25 -25 -25 -25 -25 -25 -24 -24 -24 -24 -24
-26 -25 -26 -25 -25 -25 -25 -25 -24 -24 -24 -24 -24 -24 -24 -24 -24 -24 -25 -25 -25 -25 -25 -25 -25 -25 -25 -25 -26 -26 -25 -25 -25 -25 -25 -25 -25 -25 -25 -25 -25 -25 -25 -25
-26 -25 -25 -25 -25 -25 -25 -25 -25 -25 -25 -25 -25 -25 -25 -25 -25 -25 -26 -26 -26 -26 -26 -26 -26 -26 -26 -26 -26 -26 -26 -26 -26 -25 -25 -25 -25 -25 -26 -26 -26 -26 -27 -28
-25 -25 -25 -25 -25 -25 -25 -25 -25 -26 -26 -26 -26 -26 -26 -26 -26 -26 -26 -26 -26 -26 -26 -26 -26 -26 -26 -26 -26 -26 -26 -26 -26 -26 -27 -27 -27 -28 -28 -28 -29 -30 -30 -30
-25 -26 -26 -26 -26 -26 -27 -27 -27 -27 -27 -27 -27 -27 -27 -27 -27 -27 -27 -27 -27 -27 -27 -27 -27 -27 -27 -27 -27 -28 -28 -28 -28 -29 -30 -30 -31 -31 -31 -31 -31 -31 -32 -32
-26 -26 -27 -27 -27 -27 -27 -27 -27 -27 -28 -28 -28 -28 -28 -27 -27 -27 -27 -27 -27 -27 -27 -28 -28 -28 -29 -29 -30 -30 -31 -31 -31 -32 -32 -32 -32 -32 -32 -32 -32 -32 -32 -32
-27 -27 -27 -27 -27 -28 -28 -28 -28 -28 -28 -28 -28 -28 -28 -28 -28 -28 -28 -28 -29 -29 -29 -30 -30 -31 -31 -32 -32 -32 -33 -33 -33 -33 -33 -33 -33 -33 -33 -33 -33 -33 -32 -32
Height
5591 5594 5597 5599 5601 5604 5607 5615 5620 5628 5631 5633 5636 5634 5632 5640 5645 5649 5652 5659 5661 5662 5664 5666 5668 5667 5666 5668 5672 5671 5673 5677 5680 5678 5678 5679 5681 5682 5682 5682 5683 5683 5683 5684
5584 5587 5590 5593 5597 5600 5604 5608 5615 5619 5622 5624 5628 5627 5624 5632 5639 5641 5645 5651 5655 5656 5657 5657 5657 5659 5659 5658 5659 5661 5664 5666 5667 5671 5671 5671 5671 5672 5672 5673 5673 5672 5675 5675
5577 5581 5585 5589 5594 5597 5599 5602 5608 5611 5611 5614 5615 5615 5620 5626 5630 5635 5640 5643 5649 5649 5650 5650 5649 5649 5651 5650 5651 5653 5654 5657 5657 5656 5658 5660 5661 5660 5661 5662 5662 5662 5663 5663
5571 5574 5578 5585 5587 5591 5593 5597 5599 5602 5605 5609 5608 5611 5614 5618 5623 5628 5634 5637 5637 5639 5640 5641 5642 5642 5642 5642 5643 5643 5643 5643 5647 5648 5647 5648 5648 5649 5651 5653 5650 5651 5651 5651
5563 5568 5572 5578 5583 5586 5585 5589 5591 5595 5596 5599 5600 5603 5608 5611 5616 5622 5624 5625 5627 5629 5629 5629 5631 5632 5632 5632 5632 5633 5633 5632 5632 5635 5636 5635 5634 5636 5639 5638 5638 5638 5637 5636
5556 5562 5564 5571 5573 5577 5580 5583 5585 5589 5590 5591 5593 5599 5600 5604 5612 5616 5618 5616 5616 5618 5619 5619 5619 5620 5620 5620 5620 5620 5621 5621 5620 5621 5621 5622 5623 5623 5623 5622 5623 5622 5623 5624
5547 5552 5558 5563 5567 5569 5573 5579 5578 5580 5584 5587 5592 5595 5597 5600 5602 5606 5606 5605 5606 5607 5607 5607 5607 5607 5607 5607 5608 5608 5607 5607 5607 5607 5607 5607 5607 5607 5607 5607 5605 5606 5607 5607
5539 5543 5550 5557 5561 5565 5568 5571 5573 5577 5579 5583 5584 5588 5592 5593 5593 5594 5594 5594 5595 5595 5595 5595 5595 5595 5595 5595 5594 5595 5594 5594 5593 5592 5591 5590 5591 5591 5590 5590 5591 5590 5589 5589
5536 5540 5546 5551 5552 5557 5560 5564 5567 5570 5572 5574 5576 5580 5582 5581 5581 5581 5582 5583 5585 5586 5587 5586 5585 5585 5583 5582 5582 5581 5580 5579 5577 5576 5575 5573 5572 5572 5572 5570 5571 5572 5571 5571
5532 5533 5535 5541 5543 5546 5552 5556 5558 5560 5561 5564 5567 5569 5568 5570 5572 5573 5573 5575 5576 5576 5576 5576 5575 5574 5572 5570 5569 5567 5565 5563 5561 5558 5557 5555 5553 5552 5550 5550 5549 5549 5551 5552
5528 5530 5531 5534 5540 5540 5542 5545 5548 5550 5552 5553 5556 5559 5560 5561 5562 5564 5565 5565 5565 5565 5564 5563 5562 5560 5558 5555 5553 5551 5549 5547 5544 5541 5538 5535 5533 5531 5530 5529 5530 5530 5530 5531
5523 5527 5529 5530 5534 5538 5538 5537 5539 5541 5543 5544 5546 5549 5550 5553 5554 5554 5554 5554 5553 5552 5551 5550 5548 5546 5543 5540 5537 5535 5532 5529 5525 5521 5518 5516 5514 5510 5508 5508 5510 5511 5512 5514
5521 5521 5521 5525 5528 5530 5532 5533 5534 5535 5537 5539 5541 5542 5543 5544 5544 5544 5544 5542 5540 5539 5537 5535 5532 5530 5527 5523 5519 5516 5513 5509 5507 5503 5501 5499 5495 5493 5491 5490 5491 5492 5494 5495
5512 5511 5515 5518 5520 5521 5524 5528 5530 5530 5531 5532 5533 5534 5534 5534 5533 5532 5531 5529 5527 5525 5522 5519 5515 5512 5509 5505 5501 5498 5494 5491 5488 5486 5485 5484 5482 5478 5474 5474 5474 5474 5477 5475
5509 5509 5511 5513 5514 5515 5519 5522 5523 5523 5524 5524 5524 5524 5523 5522 5521 5519 5517 5514 5512 5509 5506 5502 5499 5497 5494 5491 5488 5485 5482 5479 5476 5474 5471 5470 5470 5467 5465 5462 5459 5458 5457 5459
5506 5506 5506 5508 5508 5509 5511 5513 5514 5514 5514 5515 5514 5513 5511 5510 5507 5504 5501 5499 5496 5494 5492 5490 5487 5484 5482 5479 5476 5473 5471 5469 5466 5463 5460 5457 5456 5455 5454 5452 5449 5448 5447 5447
5502 5503 5503 5504 5504 5505 5506 5507 5507 5506 5506 5505 5503 5501 5499 5497 5494 5491 5489 5487 5485 5482 5481 5479 5476 5473 5470 5467 5465 5463 5460 5457 5455 5452 5449 5447 5445 5443 5442 5440 5438 5436 5435 5433
5495 5496 5497 5498 5498 5498 5499 5498 5498 5497 5495 5494 5492 5490 5489 5487 5484 5481 5478 5475 5473 5472 5470 5468 5465 5462 5459 5456 5453 5451 5448 5445 5443 5441 5438 5435 5432 5430 5429 5427 5426 5424 5421 5418
5487 5488 5489 5490 5490 5490 5490 5489 5488 5486 5485 5484 5482 5480 5478 5476 5473 5470 5467 5464 5462 5460 5458 5456 5453 5450 5447 5444 5440 5437 5434 5431 5429 5427 5425 5423 5420 5417 5415 5413 5411 5409 5407 5404
5479 5480 5481 5481 5482 5482 5481 5480 5478 5476 5475 5473 5471 5469 5467 5465 5462 5459 5456 5453 5450 5447 5445 5442 5439 5436 5433 5430 5427 5424 5421 5418 5415 5413 5410 5408 5405 5403 5400 5397 5394 5392 5389 5386
5471 5472 5473 5473 5473 5472 5471 5469 5467 5465 5464 5462 5460 5457 5455 5453 5450 5447 5444 5440 5437 5435 5432 5429 5427 5424 5421 5418 5415 5412 5409 5406 5403 5400 5397 5394 5391 5388 5385 5382 5379 5376 5372 5368
5462 5463 5464 5464 5464 5462 5460 5459 5457 5455 5453 5451 5448 5446 5444 5441 5439 5436 5433 5430 5427 5424 5421 5418 5415 5412 5408 5405 5402 5399 5396 5392 5389 5386 5382 5378 5374 5369 5365 5361 5358 5356 5352 5347
5457 5456 5456 5455 5454 5452 5451 5448 5446 5444 5442 5439 5437 5434 5432 5429 5426 5423 5420 5417 5414 5411 5407 5404 5400 5396 5392 5389 5385 5381 5377 5374 5370 5366 5363 5359 5354 5350 5347 5342 5338 5334 5330 5325
5450 5449 5447 5446 5444 5442 5440 5437 5435 5432 5430 5427 5424 5422 5419 5415 5412 5410 5407 5402 5399 5395 5391 5387 5382 5379 5375 5371 5366 5362 5358 5353 5349 5345 5341 5338 5334 5330 5326 5323 5319 5316 5312 5308
5441 5440 5438 5436 5434 5431 5429 5427 5423 5420 5417 5414 5411 5408 5405 5402 5399 5395 5390 5386 5381 5376 5372 5367 5363 5359 5354 5350 5346 5342 5339 5335 5332 5328 5325 5322 5319 5315 5312 5309 5305 5301 5297 5293
5433 5431 5429 5426 5424 5421 5418 5416 5412 5409 5406 5401 5396 5392 5388 5384 5378 5373 5369 5364 5360 5355 5351 5347 5343 5339 5335 5332 5329 5326 5322 5320 5317 5315 5312 5309 5306 5302 5299 5296 5292 5288 5284 5279
5425 5422 5419 5416 5413 5410 5407 5403 5398 5393 5389 5385 5379 5375 5370 5365 5359 5355 5350 5345 5340 5337 5332 5328 5325 5322 5319 5316 5314 5312 5310 5307 5305 5302 5300 5297 5294 5290 5286 5282 5278 5274 5269 5263
Wind_Speed
19 20 17 24 24 25 40 39 41 30 36 41 34 40 50 48 45 40 42 35 31 31 28 30 30 32 29 27 24 28 30 28 26 26 28 28 29 30 31 27 26 26 27 27
20 23 24 23 16 20 25 36 41 35 42 31 47 36 41 45 49 52 49 39 33 30 29 31 31 30 33 31 32 32 29 31 32 33 34 33 33 34 36 35 33 31 30 30
24 25 27 26 22 22 27 28 38 29 23 32 39 32 37 34 39 43 44 42 36 32 32 31 32 35 34 36 35 36 38 34 35 36 35 35 36 37 36 36 37 37 36 36
26 26 29 27 25 27 29 26 26 12 24 16 24 24 29 33 30 34 40 40 39 38 39 34 35 38 39 40 39 40 41 42 40 40 40 39 40 40 39 39 42 43 44 43
31 26 30 27 26 30 30 27 26 28 31 33 25 37 35 31 32 34 33 31 29 29 32 35 36 37 38 40 43 42 44 45 45 43 43 43 43 42 40 41 43 45 47 47
31 32 26 22 31 34 35 35 38 35 30 33 42 46 39 38 38 35 28 31 35 36 35 37 37 38 39 41 44 47 47 48 48 46 46 47 48 49 48 48 47 49 51 50
33 43 34 22 21 22 33 37 39 38 37 36 31 29 31 35 36 33 35 36 37 36 37 35 36 37 39 41 42 46 47 48 49 51 51 50 52 54 56 57 56 54 54 55
24 42 51 31 26 24 26 28 28 30 30 33 34 35 33 37 41 39 36 33 30 30 30 29 32 34 37 40 41 44 47 49 51 53 55 56 57 59 61 62 61 61 62 61
13 17 38 44 40 30 25 25 30 33 35 37 39 41 42 39 34 33 32 30 30 30 31 33 35 37 38 40 42 45 47 49 50 52 56 59 61 63 68 70 68 67 68 68
10 14 26 34 37 48 45 43 42 43 42 45 44 34 35 36 33 34 32 32 32 32 33 35 38 40 42 43 44 45 47 49 52 56 59 62 65 68 71 75 78 77 75 75
13 15 17 26 34 30 34 34 37 42 43 45 43 35 33 34 36 35 34 34 34 35 37 39 41 44 45 48 49 50 52 52 53 55 59 61 63 66 69 76 80 79 78 80
20 24 27 22 30 32 22 33 31 28 30 32 34 39 34 32 35 35 36 37 39 41 42 44 46 49 51 53 55 57 56 56 58 61 60 59 51 52 57 64 72 77 73 71
19 19 21 25 28 28 43 16 25 24 26 28 29 30 32 34 37 38 39 41 44 46 48 50 52 54 56 59 60 59 64 65 64 63 61 58 48 47 48 55 61 63 66 68
18 26 25 26 26 24 22 19 24 28 30 32 33 34 35 37 38 40 43 46 48 51 53 56 58 60 61 58 56 57 58 57 58 56 52 47 45 43 45 49 51 51 55 63
25 27 28 27 26 25 24 26 28 28 31 32 33 34 35 38 41 44 47 50 52 54 55 53 49 44 44 44 47 46 42 40 40 35 39 39 39 33 28 31 29 35 51 54
27 28 29 29 30 31 31 32 32 31 31 31 33 36 39 42 45 48 48 46 45 43 41 41 42 44 43 46 44 43 43 38 37 28 28 26 25 26 31 31 29 33 34 36
33 32 30 31 32 32 32 32 32 31 33 34 36 38 36 36 36 38 39 41 42 43 42 41 40 44 45 40 39 41 42 39 42 38 38 33 30 30 30 31 32 33 35 36
28 29 29 28 28 29 30 30 32 34 35 36 33 33 32 34 35 37 39 40 40 42 43 42 39 41 40 42 41 45 42 40 40 41 41 40 38 36 36 36 38 40 41 42
28 29 27 27 29 29 30 33 36 35 34 33 33 33 34 36 36 35 36 36 37 40 41 41 43 44 45 44 43 44 45 46 46 46 45 44 44 43 43 43 42 43 44 46
32 32 32 31 30 33 33 33 33 34 35 35 36 36 38 39 39 40 43 43 42 43 45 45 46 46 44 42 41 42 43 43 44 44 44 45 44 43 44 45 46 47 47 48
30 29 34 30 30 31 32 33 35 36 37 37 37 38 39 41 43 43 38 36 36 37 37 37 36 36 36 37 38 39 41 42 43 44 45 46 47 48 48 49 51 52 54 56
21 22 26 29 29 31 32 34 35 36 36 36 35 36 38 38 37 37 37 37 38 39 40 41 42 43 44 44 45 45 46 48 49 50 51 53 54 56 57 58 58 58 59 60
21 23 26 30 33 35 36 34 34 34 34 34 35 36 38 38 39 41 41 42 42 44 45 47 49 50 51 52 53 54 55 56 56 56 57 58 60 60 60 60 60 61 59 55
26 28 29 30 30 32 33 34 34 34 34 35 36 37 38 41 43 44 46 49 51 52 54 55 56 57 57 58 59 59 60 61 62 61 61 61 59 57 57 55 53 51 51 51
27 28 30 32 31 30 30 30 32 33 36 39 42 45 47 49 51 53 54 55 57 58 59 60 60 61 61 61 59 59 58 55 53 51 50 48 46 45 46 45 46 47 48 49
21 22 24 26 29 32 35 37 40 42 44 47 50 53 55 58 60 62 63 64 64 63 62 60 59 57 55 53 51 49 47 45 43 42 41 41 41 41 42 43 45 47 48 50
27 30 33 36 38 40 42 44 46 50 53 55 58 60 63 64 63 62 60 59 59 58 57 55 53 50 47 45 43 41 39 37 37 36 36 36 38 40 42 43 45 47 50 52
Wind_Direction
232 232 238 247 220 217 212 213 207 197 210 224 221 238 237 216 214 230 233 237 247 250 252 252 246 254 266 262 250 253 258 258 258 257 260 262 266 267 268 270 268 268 270 271
222 223 225 241 218 218 216 215 207 208 216 219 212 222 211 223 224 236 238 239 240 245 243 253 260 250 248 255 259 255 257 260 259 258 257 262 265 264 263 267 267 267 267 268
230 228 227 231 243 228 219 205 216 220 217 213 221 235 202 209 219 226 232 235 238 248 244 247 253 259 259 260 258 258 260 257 264 264 261 258 256 258 261 263 264 267 267 267
226 234 232 228 227 233 231 180 196 198 227 230 249 231 220 227 227 218 224 231 251 249 245 250 254 256 259 261 264 266 265 265 261 262 265 265 264 263 261 263 263 265 266 266
222 225 232 226 232 231 246 242 246 239 242 226 240 244 247 253 246 237 247 253 256 254 253 255 255 255 256 256 258 261 264 267 268 264 259 261 262 262 264 264 265 265 266 267
221 212 213 211 223 227 231 237 244 248 246 239 237 244 251 252 252 256 262 266 258 254 253 254 254 253 254 254 255 258 260 262 263 264 263 261 261 263 264 262 262 262 264 267
230 212 205 206 196 210 218 228 235 240 234 238 243 239 250 263 262 265 263 261 258 256 255 253 251 252 251 248 254 257 257 259 261 262 262 263 263 263 262 264 264 263 265 267
234 225 215 224 223 217 212 217 225 224 232 239 247 254 259 260 259 260 257 252 250 252 256 259 260 258 258 258 257 258 258 259 260 260 260 261 262 263 262 260 260 262 262 262
241 241 230 231 235 212 213 228 243 254 257 261 266 266 266 262 260 256 249 246 249 254 259 263 266 269 271 271 271 271 270 269 268 266 264 262 261 260 261 262 257 256 259 260
244 235 231 226 240 242 246 247 257 260 262 268 270 263 256 257 252 249 246 248 253 258 262 264 266 269 272 274 275 275 274 273 272 270 268 266 263 260 257 257 259 260 258 261
214 203 235 220 223 246 253 252 254 252 259 259 255 237 251 251 249 248 253 258 262 267 270 274 277 279 280 280 281 281 280 279 279 278 276 275 272 269 262 258 259 262 264 263
210 215 230 217 217 224 230 224 242 240 247 248 245 245 250 251 250 256 261 265 268 273 277 279 282 283 284 283 283 282 282 285 284 283 286 287 284 279 267 260 258 260 265 267
216 193 181 212 217 228 236 237 234 245 248 252 251 251 253 255 260 263 267 272 275 279 281 283 285 287 287 288 286 284 286 285 285 285 283 291 283 278 272 267 261 261 262 262
258 253 246 253 255 255 248 248 249 252 253 254 255 258 260 264 269 273 276 277 279 282 285 286 287 288 288 288 288 287 286 285 283 284 286 282 285 281 268 258 263 263 263 261
242 252 255 253 258 260 259 258 258 260 261 265 268 269 271 273 275 277 279 281 282 283 284 287 288 286 286 291 291 291 291 283 285 282 275 273 275 279 273 263 263 254 248 262
247 250 254 253 256 262 264 267 269 270 268 267 269 271 273 276 278 279 280 281 281 280 280 282 285 284 288 292 287 285 289 281 279 279 279 271 274 273 271 278 277 273 270 271
241 247 251 250 253 257 259 260 262 262 265 268 272 277 278 280 285 286 282 281 281 280 281 289 289 290 288 285 285 286 286 284 279 286 284 279 275 275 273 273 275 274 275 276
247 248 250 251 252 254 257 259 262 267 271 276 274 275 278 286 291 288 281 282 280 281 283 284 288 290 290 284 282 284 287 286 288 287 285 283 281 279 277 276 276 278 279 279
252 254 254 254 254 254 257 267 270 271 273 279 283 278 280 286 288 290 288 284 283 282 281 281 286 288 290 286 284 283 282 284 285 286 286 283 281 280 280 281 281 279 280 280
253 252 252 257 258 268 276 276 277 274 274 283 284 280 281 283 284 290 290 286 282 281 283 286 288 288 287 285 285 284 283 284 286 286 285 285 285 284 284 284 284 285 286 285
276 267 257 263 273 277 280 283 285 285 284 285 285 284 286 287 286 289 289 292 289 287 288 288 288 288 288 288 288 288 287 288 288 288 289 290 290 289 289 289 288 287 288 288
267 263 262 264 270 282 287 286 287 285 282 283 284 285 287 287 289 290 291 289 287 287 287 287 288 288 289 289 290 290 290 290 289 289 289 289 290 291 291 291 291 291 290 290
277 280 279 277 282 286 285 282 283 283 284 286 288 288 287 287 288 288 288 288 287 287 287 288 288 289 290 291 291 292 292 292 292 292 292 292 293 293 294 294 294 295 294 293
283 281 282 282 285 287 287 288 286 286 286 286 287 288 288 288 288 286 286 287 288 289 289 290 290 290 290 291 291 292 293 293 294 295 295 295 295 294 294 293 293 293 293 292
288 282 280 281 283 283 285 287 289 290 291 291 291 290 289 289 288 289 289 290 291 291 292 292 292 293 293 293 293 293 293 292 291 291 290 290 290 289 290 290 291 292 293 293
295 295 293 293 292 292 291 291 291 290 290 292 292 292 292 293 294 294 294 293 293 292 292 291 291 291 290 290 289 289 288 287 286 287 287 287 288 289 290 291 291 292 293 293
294 293 292 290 289 290 290 292 293 294 294 294 294 294 293 293 292 292 291 290 290 289 288 287 286 285 284 283 283 283 283 284 284 285 286 287 289 291 293 294 295 296 297 297